Powrót do katalogu

HULIANWANG DIGUI-93

AktywnyŁącznośćLEO
NORAD 66001·PAYLOAD·🇨🇳 China

Wystrzelony Oct 16, 2025 z Wenchang Space Launch Site

Loading…

Następne Przeloty (najbliższe 24 godziny)

TLE

ŚwieżeSource: Space-Track

Epoka: Sep 14, 2026, 04:51 UTC

1 66001U 25231G   26257.20255315 -.00000104  00000-0  43607-4 0  9991
2 66001  50.0006 216.1767 0000343  40.8370 319.2527 13.29327731 44733

Śledź HULIANWANG DIGUI-93 w czasie rzeczywistym z AllMySat

Download on the App Store